星链-1370 (STARLINK-1370 )

导读

STARLINK-1370是美国太空探索技术公司(SpaceX)星链星座的卫星,于2020年6月4日发射入轨,属于星链项目早期部署的卫星,承担低轨互联网卫星星座组网任务,旨在为全球提供高速低延迟宽带互联网服务,目前已在轨道运行近6年,是星链星座全球覆盖建设的组成部分。

Basic Information
目录编号:
45698
目录名称:
STARLINK-1370
国际标识:
2020-035AT
轨道中心:
EARTH
卫星名称:
星链-1370
卫星全名:
星链-1370 (STARLINK-1370 )
卫星状态:
已陨落 最后检测时间 2024-07-28
发射日期:
2020-06-04 UTC
国别 :
美国 (US)
星等 :
--
Orbit Information
数据来源 国际轨道数据
星历时间: 2024-07-28T10:20:04+0800
轨道信息已过期686天
半长轴: 6557.668km
偏心率: 0.0011241
轨道倾角: 53.029°
近地点辐角 238.991°
升交点赤经 101.558°
平近点角 236.293°
近地点: 172.161km
远地点: 186.905km
周期: 88.081分钟
每日圈数: 16.348527
Detailed Information
固有亮度:
5
最大亮度:
2.5
卫星平台:
Starlink V1.0
覆盖范围:
全球
运营商:
太空探索技术公司
运营商所在国:
美国
制造商(研发单位):
太空探索技术公司
制造商所在国:
美国
使用方式:
暂无
Satellite Introduction
星链(Starlink)计划是由太空探索技术公司(SpaceX)提出的一个巨型低轨卫星互联网星座项目,计划在2019年至2024年间在太空搭建由约1.2万颗卫星组成的“星链”网络,其中1584颗将部署在地球上空550千米处的近地轨道,并从2020年开始工作。该卫星仍在工作。